Location: Vancouver
(49.2500°N, 123.1330°W)
Time: 00:38:29
(UTC-07:00)

Oscar 11 - Visible Passes

Search period start: 26 April 2018 00:00
Search period end: 06 May 2018 00:00
Orbit: 615 x 625 km, 97.7° (Epoch: 25 April)

Date Brightness Start Highest point End Pass type
(mag) Time Alt. Az. Time Alt. Az. Time Alt. Az.
26 Apr 9.7 21:49:05 10° SW 21:52:07 18° W 21:55:10 10° NW visible
27 Apr 10.0 22:07:38 10° WSW 22:09:32 13° W 22:11:27 10° WNW visible
29 Apr 8.2 21:03:07 10° S 21:07:19 47° W 21:11:33 10° NNW visible
30 Apr 8.9 21:20:43 10° SSW 21:24:38 32° W 21:28:34 10° NNW visible
01 May 9.5 21:38:34 10° SW 21:41:59 22° W 21:45:25 10° NW visible
02 May 9.8 21:56:46 10° SW 21:59:23 16° W 22:02:01 10° NW visible
03 May 10.2 22:16:02 10° W 22:16:50 10° W 22:17:37 10° WNW visible
05 May 8.5 21:10:27 10° SSW 21:14:32 39° W 21:18:39 10° NNW visible
